DLH2ML EDDG-EGLL

Flight info

Callsign DLH2ML
Flight time 1h 7m
Altitude 24000
Route DOMEG1E/07 DOMEG N853 QATJA Y841 NVO Y868 MAPAD/N0453F320 Y868 SOGRI L608 LOGAN
Aircraft A320/M-SDE3FGHIRWY/LB1

Departure

Time 2026-04-26 13:06
Airport Münster Osnabrück Airport (EDDG)

Arrival

Time 2026-04-26 14:13
Airport London Heathrow Airport (EGLL)
Time Latitude Longitude Altitude Speed Heading
2026-04-26 12:31 52.13187 7.69469 168 ft 0 kts 197°
2026-04-26 12:55 52.13202 7.69476 168 ft 4 kts 196°
2026-04-26 12:55 52.13227 7.69491 168 ft 4 kts 205°
2026-04-26 12:55 52.13252 7.69508 168 ft 4 kts 202°
2026-04-26 12:56 52.13272 7.69529 168 ft 3 kts 246°
2026-04-26 12:56 52.13275 7.69540 168 ft 0 kts 249°
2026-04-26 13:00 52.13272 7.69527 168 ft 4 kts 249°
2026-04-26 13:00 52.13254 7.69451 168 ft 7 kts 249°
2026-04-26 13:01 52.13243 7.69357 167 ft 12 kts 285°
2026-04-26 13:01 52.13337 7.69275 167 ft 18 kts 342°
2026-04-26 13:01 52.13427 7.69168 167 ft 16 kts 268°
2026-04-26 13:01 52.13387 7.68950 167 ft 26 kts 251°
2026-04-26 13:02 52.13319 7.68621 167 ft 32 kts 249°
2026-04-26 13:02 52.13249 7.68299 167 ft 28 kts 251°
2026-04-26 13:02 52.13185 7.67993 166 ft 29 kts 251°
2026-04-26 13:02 52.13117 7.67671 166 ft 31 kts 251°
2026-04-26 13:03 52.13046 7.67336 165 ft 32 kts 251°
2026-04-26 13:03 52.13051 7.67129 165 ft 14 kts 304°
2026-04-26 13:03 52.13070 7.67086 165 ft 0 kts 309°
2026-04-26 13:04 52.13077 7.67074 165 ft 6 kts 316°
2026-04-26 13:04 52.13145 7.67054 165 ft 13 kts 23°
2026-04-26 13:04 52.13184 7.67153 164 ft 0 kts 71°
2026-04-26 13:05 52.13184 7.67154 164 ft 3 kts 71°
2026-04-26 13:05 52.13265 7.67517 164 ft 74 kts 71°
2026-04-26 13:05 52.13509 7.68669 168 ft 137 kts 69°
2026-04-26 13:06 52.13867 7.70356 416 ft 169 kts 71°
2026-04-26 13:06 52.14214 7.72263 1015 ft 182 kts 73°
2026-04-26 13:06 52.14575 7.74304 1636 ft 194 kts 74°
2026-04-26 13:06 52.14856 7.76515 2260 ft 204 kts 83°
2026-04-26 13:07 52.14877 7.78924 2740 ft 227 kts 103°
2026-04-26 13:07 52.14012 7.81204 3283 ft 252 kts 142°
2026-04-26 13:07 52.12355 7.82188 4236 ft 262 kts 179°
2026-04-26 13:07 52.10530 7.81737 4806 ft 268 kts 195°
2026-04-26 13:08 52.08749 7.80808 4972 ft 268 kts 200°
2026-04-26 13:08 52.07010 7.79725 5006 ft 268 kts 201°
2026-04-26 13:08 52.05259 7.78600 5296 ft 276 kts 201°
2026-04-26 13:08 52.03483 7.77480 6397 ft 275 kts 202°
2026-04-26 13:09 52.01757 7.76421 7331 ft 280 kts 202°
2026-04-26 13:09 51.99918 7.75319 8290 ft 285 kts 202°
2026-04-26 13:09 51.98036 7.74214 9248 ft 289 kts 202°
2026-04-26 13:09 51.96173 7.73133 10204 ft 294 kts 202°
2026-04-26 13:10 51.94190 7.71989 10791 ft 312 kts 202°
2026-04-26 13:10 51.92774 7.71171 11048 ft 328 kts 202°
2026-04-26 13:10 51.90548 7.69887 11375 ft 351 kts 202°
2026-04-26 13:10 51.88213 7.68544 12072 ft 359 kts 201°
2026-04-26 13:11 51.85838 7.67187 12901 ft 364 kts 202°
2026-04-26 13:11 51.83433 7.65819 13745 ft 368 kts 201°
2026-04-26 13:11 51.81002 7.64437 14509 ft 371 kts 201°
2026-04-26 13:11 51.78524 7.63024 15245 ft 375 kts 202°
2026-04-26 13:12 51.76086 7.61634 15931 ft 378 kts 202°
2026-04-26 13:12 51.73563 7.60200 16664 ft 382 kts 201°
2026-04-26 13:12 51.71068 7.58785 17381 ft 385 kts 201°
2026-04-26 13:12 51.68495 7.57384 18102 ft 389 kts 200°
2026-04-26 13:13 51.65905 7.56056 18741 ft 392 kts 199°
2026-04-26 13:13 51.63278 7.54757 19319 ft 395 kts 199°
2026-04-26 13:13 51.60638 7.53470 19893 ft 398 kts 199°
2026-04-26 13:13 51.57982 7.52168 20469 ft 401 kts 199°
2026-04-26 13:14 51.55280 7.50831 21037 ft 404 kts 199°
2026-04-26 13:14 51.52611 7.49504 21611 ft 407 kts 199°
2026-04-26 13:14 51.49865 7.48135 22170 ft 410 kts 199°
2026-04-26 13:14 51.47129 7.46768 22717 ft 413 kts 200°
2026-04-26 13:15 51.44431 7.45418 23218 ft 416 kts 199°
2026-04-26 13:15 51.41665 7.44020 23747 ft 418 kts 201°
2026-04-26 13:15 51.39012 7.42139 24150 ft 418 kts 211°
2026-04-26 13:15 51.36594 7.39566 24282 ft 416 kts 221°
2026-04-26 13:16 51.34513 7.36383 24323 ft 414 kts 231°
2026-04-26 13:16 51.32789 7.32781 24314 ft 413 kts 236°
2026-04-26 13:16 51.31069 7.29026 24308 ft 413 kts 235°
2026-04-26 13:16 51.29335 7.25282 24305 ft 413 kts 235°
2026-04-26 13:17 51.26425 7.19064 24314 ft 414 kts 235°
2026-04-26 13:17 51.24705 7.15390 24315 ft 414 kts 235°
2026-04-26 13:18 51.21258 7.08038 24316 ft 415 kts 235°
2026-04-26 13:18 51.19523 7.04341 24317 ft 415 kts 235°
2026-04-26 13:18 51.16061 6.96984 24320 ft 415 kts 235°
2026-04-26 13:19 51.14326 6.93310 24319 ft 415 kts 235°
2026-04-26 13:19 51.12588 6.89646 24321 ft 416 kts 233°
2026-04-26 13:19 51.10603 6.86272 24316 ft 418 kts 224°
2026-04-26 13:19 51.08458 6.83660 24316 ft 421 kts 215°
2026-04-26 13:20 51.05870 6.81445 24311 ft 423 kts 207°
2026-04-26 13:20 51.03202 6.79445 24297 ft 424 kts 207°
2026-04-26 13:20 51.00540 6.77438 24295 ft 424 kts 207°
2026-04-26 13:20 50.97882 6.75423 24297 ft 424 kts 208°
2026-04-26 13:21 50.95403 6.72890 24491 ft 423 kts 223°
2026-04-26 13:21 50.94030 6.70635 24787 ft 422 kts 234°
2026-04-26 13:21 50.92287 6.65665 25286 ft 420 kts 253°
2026-04-26 13:21 50.91752 6.61135 25686 ft 419 kts 270°
2026-04-26 13:22 50.92056 6.56549 26094 ft 419 kts 284°
2026-04-26 13:22 50.92772 6.52078 26517 ft 421 kts 285°
2026-04-26 13:22 50.93490 6.47567 26940 ft 423 kts 285°
2026-04-26 13:22 50.94201 6.43030 27348 ft 425 kts 285°
2026-04-26 13:23 50.94908 6.38475 27762 ft 426 kts 285°
2026-04-26 13:23 50.95616 6.33899 28149 ft 428 kts 285°
2026-04-26 13:23 50.96326 6.29289 28532 ft 430 kts 285°
2026-04-26 13:23 50.97034 6.24671 28907 ft 432 kts 285°
2026-04-26 13:24 50.97743 6.20035 29265 ft 434 kts 285°
2026-04-26 13:24 50.98456 6.15375 29620 ft 436 kts 285°
2026-04-26 13:24 50.99141 6.10895 29963 ft 437 kts 285°
2026-04-26 13:24 50.99860 6.06177 30315 ft 439 kts 285°
2026-04-26 13:25 51.00584 6.01420 30755 ft 437 kts 285°
2026-04-26 13:25 51.01283 5.96797 31172 ft 435 kts 285°
2026-04-26 13:25 51.01994 5.92077 31597 ft 434 kts 285°
2026-04-26 13:25 51.02693 5.87419 32004 ft 433 kts 285°
2026-04-26 13:26 51.03390 5.82757 32254 ft 432 kts 285°
2026-04-26 13:26 51.04770 5.73548 32296 ft 427 kts 285°
2026-04-26 13:27 51.06136 5.64379 32299 ft 426 kts 285°
2026-04-26 13:27 51.07491 5.55233 32304 ft 425 kts 285°
2026-04-26 13:28 51.08835 5.46080 32301 ft 425 kts 285°
2026-04-26 13:28 51.10169 5.36907 32296 ft 425 kts 285°
2026-04-26 13:29 51.11497 5.27761 32300 ft 425 kts 285°
2026-04-26 13:29 51.12822 5.18600 32304 ft 424 kts 285°
2026-04-26 13:30 51.14139 5.09452 32306 ft 424 kts 285°
2026-04-26 13:30 51.15446 5.00290 32308 ft 424 kts 284°
2026-04-26 13:31 51.16750 4.91069 32308 ft 424 kts 284°
2026-04-26 13:31 51.18034 4.81942 32311 ft 423 kts 284°
2026-04-26 13:32 51.19317 4.72756 32316 ft 423 kts 284°
2026-04-26 13:32 51.20588 4.63601 32322 ft 423 kts 284°
2026-04-26 13:33 51.21852 4.54445 32323 ft 422 kts 284°
2026-04-26 13:33 51.23109 4.45314 32323 ft 422 kts 284°
2026-04-26 13:34 51.24368 4.36097 32323 ft 422 kts 284°
2026-04-26 13:34 51.25605 4.26943 32321 ft 421 kts 284°
2026-04-26 13:35 51.26834 4.17821 32318 ft 421 kts 284°
2026-04-26 13:35 51.28056 4.08693 32314 ft 420 kts 284°
2026-04-26 13:36 51.29267 3.99588 32313 ft 420 kts 284°
2026-04-26 13:36 51.30478 3.90439 32306 ft 419 kts 283°
2026-04-26 13:37 51.31682 3.81319 32306 ft 419 kts 283°
2026-04-26 13:37 51.32874 3.72212 32305 ft 418 kts 283°
2026-04-26 13:38 51.34055 3.63106 32304 ft 418 kts 283°
2026-04-26 13:38 51.35034 3.55486 32306 ft 418 kts 283°
2026-04-26 13:39 51.36203 3.46381 32308 ft 418 kts 283°
2026-04-26 13:39 51.37365 3.37279 32309 ft 418 kts 283°
2026-04-26 13:40 51.38516 3.28161 32313 ft 417 kts 282°
2026-04-26 13:40 51.39658 3.19007 32313 ft 417 kts 282°
2026-04-26 13:41 51.40901 3.09925 32318 ft 416 kts 288°
2026-04-26 13:41 51.42921 3.01244 32321 ft 416 kts 291°
2026-04-26 13:42 51.44957 2.92576 32323 ft 416 kts 291°
2026-04-26 13:42 51.46983 2.83891 32322 ft 416 kts 290°
2026-04-26 13:43 51.49000 2.75186 32323 ft 416 kts 290°
2026-04-26 13:43 51.51017 2.66493 32326 ft 416 kts 290°
2026-04-26 13:44 51.53027 2.57789 32328 ft 416 kts 290°
2026-04-26 13:44 51.55020 2.49068 32331 ft 416 kts 290°
2026-04-26 13:45 51.57028 2.40291 32332 ft 416 kts 290°
2026-04-26 13:45 51.58932 2.31968 32329 ft 416 kts 290°
2026-04-26 13:46 51.60917 2.23239 32331 ft 416 kts 290°
2026-04-26 13:46 51.62891 2.14502 32332 ft 416 kts 289°
2026-04-26 13:47 51.64861 2.05737 32335 ft 416 kts 289°
2026-04-26 13:47 51.66820 1.96997 32103 ft 416 kts 289°
2026-04-26 13:47 51.67799 1.92603 31783 ft 416 kts 289°
2026-04-26 13:48 51.68779 1.88206 30774 ft 421 kts 289°
2026-04-26 13:48 51.69775 1.83727 29564 ft 427 kts 289°
2026-04-26 13:48 51.70781 1.79191 28400 ft 431 kts 289°
2026-04-26 13:48 51.71804 1.74563 27421 ft 431 kts 289°
2026-04-26 13:49 51.72803 1.70043 26780 ft 424 kts 289°
2026-04-26 13:49 51.73757 1.65576 26045 ft 420 kts 285°
2026-04-26 13:49 51.74325 1.60965 25524 ft 420 kts 276°
2026-04-26 13:49 51.74437 1.56238 24842 ft 423 kts 268°
2026-04-26 13:50 51.74170 1.51490 23990 ft 424 kts 264°
2026-04-26 13:50 51.73858 1.46790 23357 ft 418 kts 264°
2026-04-26 13:50 51.73552 1.42204 22727 ft 414 kts 264°
2026-04-26 13:50 51.73245 1.37601 22120 ft 410 kts 264°
2026-04-26 13:51 51.72941 1.33039 21504 ft 406 kts 264°
2026-04-26 13:51 51.72642 1.28529 20897 ft 403 kts 264°
2026-04-26 13:51 51.72348 1.24070 20300 ft 400 kts 264°
2026-04-26 13:51 51.72055 1.19638 19706 ft 396 kts 264°
2026-04-26 13:52 51.71761 1.15231 19111 ft 393 kts 264°
2026-04-26 13:52 51.71469 1.10857 18501 ft 390 kts 264°
2026-04-26 13:52 51.71175 1.06511 17867 ft 387 kts 264°
2026-04-26 13:52 51.70879 1.02182 17292 ft 384 kts 264°
2026-04-26 13:53 51.70586 0.97917 16716 ft 381 kts 264°
2026-04-26 13:53 51.70294 0.93694 16289 ft 379 kts 264°
2026-04-26 13:53 51.69999 0.89437 15310 ft 386 kts 263°
2026-04-26 13:53 51.69695 0.85105 14339 ft 393 kts 263°
2026-04-26 13:54 51.69389 0.80743 13737 ft 388 kts 263°
2026-04-26 13:54 51.69087 0.76469 13065 ft 383 kts 263°
2026-04-26 13:54 51.68788 0.72229 12597 ft 374 kts 263°
2026-04-26 13:55 51.68226 0.64273 12338 ft 342 kts 263°
2026-04-26 13:55 51.68046 0.61740 12252 ft 332 kts 263°
2026-04-26 13:55 51.67462 0.53706 11680 ft 295 kts 263°
2026-04-26 13:56 51.67224 0.50463 11404 ft 291 kts 263°
2026-04-26 13:56 51.66985 0.47233 11086 ft 289 kts 263°
2026-04-26 13:56 51.66750 0.44025 10752 ft 288 kts 263°
2026-04-26 13:56 51.66517 0.40836 10415 ft 286 kts 263°
2026-04-26 13:57 51.66285 0.37657 10068 ft 286 kts 263°
2026-04-26 13:57 51.66049 0.34439 9707 ft 285 kts 263°
2026-04-26 13:57 51.65819 0.31321 9288 ft 281 kts 263°
2026-04-26 13:57 51.65591 0.28219 8639 ft 284 kts 263°
2026-04-26 13:58 51.65344 0.25074 8330 ft 281 kts 262°
2026-04-26 13:58 51.65066 0.22000 8070 ft 276 kts 261°
2026-04-26 13:58 51.64783 0.18934 7712 ft 275 kts 261°
2026-04-26 13:58 51.64502 0.15894 7313 ft 274 kts 261°
2026-04-26 13:59 51.64221 0.12869 7055 ft 272 kts 261°
2026-04-26 13:59 51.63949 0.09957 7033 ft 274 kts 261°
2026-04-26 13:59 51.63667 0.06928 7036 ft 275 kts 261°
2026-04-26 14:00 51.62818 -0.02218 7036 ft 275 kts 261°
2026-04-26 14:00 51.62533 -0.05300 7035 ft 275 kts 261°
2026-04-26 14:00 51.62346 -0.07316 7033 ft 275 kts 261°
2026-04-26 14:01 51.61968 -0.11397 7034 ft 275 kts 261°
2026-04-26 14:01 51.61687 -0.14436 7037 ft 275 kts 261°
2026-04-26 14:01 51.61407 -0.17485 7033 ft 275 kts 261°
2026-04-26 14:01 51.61129 -0.20531 7030 ft 275 kts 261°
2026-04-26 14:02 51.60849 -0.23573 7029 ft 275 kts 261°
2026-04-26 14:02 51.60570 -0.26615 7033 ft 275 kts 261°
2026-04-26 14:02 51.60304 -0.29555 7007 ft 275 kts 261°
2026-04-26 14:02 51.60029 -0.32595 7005 ft 275 kts 261°
2026-04-26 14:03 51.59753 -0.35641 7007 ft 275 kts 261°
2026-04-26 14:03 51.59478 -0.38682 7012 ft 275 kts 261°
2026-04-26 14:03 51.59200 -0.41764 7012 ft 275 kts 261°
2026-04-26 14:03 51.58925 -0.44809 7006 ft 275 kts 261°
2026-04-26 14:04 51.58649 -0.47850 7013 ft 275 kts 261°
2026-04-26 14:04 51.58468 -0.49863 7008 ft 275 kts 261°
2026-04-26 14:04 51.58197 -0.52885 6726 ft 272 kts 261°
2026-04-26 14:04 51.57928 -0.55901 6288 ft 272 kts 261°
2026-04-26 14:05 51.57661 -0.58905 5921 ft 272 kts 262°
2026-04-26 14:05 51.57401 -0.61903 5550 ft 271 kts 261°
2026-04-26 14:05 51.57150 -0.64875 5221 ft 269 kts 261°
2026-04-26 14:05 51.56904 -0.67788 4773 ft 265 kts 262°
2026-04-26 14:06 51.56635 -0.70707 4712 ft 257 kts 261°
2026-04-26 14:06 51.56395 -0.73513 4578 ft 252 kts 261°
2026-04-26 14:06 51.56171 -0.76249 4443 ft 241 kts 261°
2026-04-26 14:06 51.55966 -0.78786 4313 ft 236 kts 261°
2026-04-26 14:07 51.55493 -0.81159 4187 ft 226 kts 233°
2026-04-26 14:07 51.54345 -0.82709 4050 ft 214 kts 199°
2026-04-26 14:07 51.52912 -0.82902 3863 ft 206 kts 163°
2026-04-26 14:07 51.51717 -0.81702 3684 ft 205 kts 130°
2026-04-26 14:08 51.50892 -0.79821 3468 ft 208 kts 122°
2026-04-26 14:08 51.50130 -0.77822 3322 ft 212 kts 121°
2026-04-26 14:08 51.49387 -0.75824 3202 ft 207 kts 121°
2026-04-26 14:08 51.48661 -0.73862 3049 ft 199 kts 121°
2026-04-26 14:09 51.47984 -0.72034 2961 ft 183 kts 118°
2026-04-26 14:09 51.47648 -0.70182 2802 ft 170 kts 96°
2026-04-26 14:09 51.47646 -0.68263 2528 ft 166 kts 91°
2026-04-26 14:09 51.47658 -0.66501 2334 ft 152 kts 90°
2026-04-26 14:10 51.47669 -0.64844 2124 ft 149 kts 90°
2026-04-26 14:10 51.47679 -0.63214 1913 ft 139 kts 91°
2026-04-26 14:10 51.47687 -0.61701 1736 ft 135 kts 91°
2026-04-26 14:10 51.47694 -0.60204 1562 ft 134 kts 91°
2026-04-26 14:11 51.47709 -0.57235 1215 ft 133 kts 89°
2026-04-26 14:11 51.47716 -0.55765 1029 ft 130 kts 90°
2026-04-26 14:11 51.47723 -0.54304 843 ft 131 kts 90°
2026-04-26 14:12 51.47726 -0.52850 705 ft 128 kts 89°
2026-04-26 14:12 51.47728 -0.51400 538 ft 128 kts 88°
2026-04-26 14:12 51.47754 -0.49994 363 ft 128 kts 86°
2026-04-26 14:12 51.47763 -0.48556 179 ft 127 kts 90°
2026-04-26 14:13 51.47744 -0.46036 87 ft 70 kts 83°
2026-04-26 14:13 51.47762 -0.45720 82 ft 4 kts 88°
2026-04-26 14:13 51.47751 -0.45538 86 ft 26 kts 124°
2026-04-26 14:14 51.47648 -0.45466 85 ft 17 kts 184°
2026-04-26 14:14 51.47629 -0.45467 85 ft 0 kts 180°
2026-04-26 14:16 51.47615 -0.45467 86 ft 9 kts 180°
2026-04-26 14:16 51.47516 -0.45410 88 ft 18 kts 122°
2026-04-26 14:16 51.47505 -0.45198 90 ft 21 kts 94°
2026-04-26 14:16 51.47504 -0.44948 88 ft 26 kts 86°
2026-04-26 14:17 51.47511 -0.44649 90 ft 22 kts 95°
2026-04-26 14:17 51.47424 -0.44556 86 ft 12 kts 174°
2026-04-26 14:17 51.47318 -0.44553 87 ft 22 kts 180°
2026-04-26 14:17 51.47154 -0.44554 86 ft 25 kts 180°
2026-04-26 14:18 51.47082 -0.44555 81 ft 0 kts 182°
2026-04-26 14:18 51.47053 -0.44558 86 ft 18 kts 183°
2026-04-26 14:18 51.47002 -0.44646 86 ft 10 kts 262°
2026-04-26 14:18 51.46999 -0.44684 84 ft 1 kts 269°
2026-04-26 14:19 51.46999 -0.44686 84 ft 0 kts 270°
2026-04-26 14:19 51.46999 -0.44687 84 ft 0 kts 270°